Wind_Speed
51 50 48 49 47 47 46 46 46 45 43 42 42 42 41 40 39 39 38 37 36 36 35 35 35 35 34 34 34 33 33 33 34 33 33 33 33 34 35 35 36 37 37
48 49 48 48 47 46 45 44 45 45 45 44 45 44 43 43 42 42 41 40 39 39 38 38 38 38 38 37 36 36 35 35 35 35 35 35 35 35 36 36 37 39 39
47 48 48 47 46 45 45 44 44 44 45 44 45 46 46 45 45 45 44 42 42 40 40 40 39 39 39 38 38 37 36 35 35 36 36 36 35 36 37 38 39 40 41
45 46 47 47 46 46 45 45 45 45 46 46 45 46 46 46 45 45 45 44 43 42 41 40 40 39 38 38 38 36 36 37 37 38 38 39 39 39 39 40 41 42 43
43 43 45 45 45 45 45 45 45 45 46 47 46 47 47 46 46 46 46 45 45 44 42 40 39 40 39 38 38 39 39 38 38 39 40 41 41 42 43 42 42 43 44
41 42 43 43 43 44 44 44 45 43 44 45 47 47 48 48 47 46 45 44 43 43 42 42 41 41 40 39 39 40 39 39 39 40 41 42 43 44 45 45 44 44 44
42 45 45 44 44 43 44 44 45 44 42 43 44 45 45 46 47 47 45 44 44 44 44 44 42 41 41 41 42 41 40 40 41 41 42 42 44 44 45 45 45 46 46
40 44 45 46 46 46 46 46 46 47 46 45 44 44 45 45 45 46 44 45 46 44 42 43 43 43 43 43 42 41 41 41 42 43 43 44 44 45 46 47 48 49 48
38 42 44 46 46 47 46 45 46 47 46 47 46 46 47 47 47 46 46 46 45 44 45 44 45 44 43 43 43 43 42 43 44 44 44 45 46 47 48 48 49 50 49
37 38 41 43 45 46 46 46 46 46 46 46 47 47 47 46 46 47 47 47 45 44 44 45 45 45 45 46 45 45 45 45 44 46 47 47 47 48 48 49 49 50 50
34 37 39 41 43 44 45 45 45 45 46 47 47 47 47 46 47 48 48 47 47 47 47 47 46 46 46 46 47 47 47 47 47 48 48 48 48 49 49 49 50 50 50
29 33 36 38 41 42 43 44 45 46 46 46 47 48 47 47 48 49 48 48 48 48 48 48 47 47 47 48 48 48 48 48 48 48 48 48 49 49 49 49 49 49 49
28 30 32 35 38 41 43 45 47 48 48 47 47 48 47 47 48 49 50 50 50 49 50 49 48 48 48 48 48 47 47 47 47 48 48 48 48 49 49 49 48 48 48
28 30 31 33 36 39 41 44 45 47 48 48 49 49 49 49 49 49 50 51 50 50 51 49 48 48 48 48 48 47 46 46 47 48 48 47 47 47 47 47 48 47 47
28 30 31 34 36 38 40 43 44 45 47 48 49 49 49 50 50 49 49 50 50 50 49 48 48 47 47 47 47 47 46 46 47 47 46 46 46 46 46 47 47 47 46
27 30 31 33 35 38 40 42 43 44 45 47 47 47 48 48 48 48 48 49 49 49 49 48 48 47 46 47 47 47 47 46 46 46 46 45 46 46 46 46 46 46 46
28 30 32 34 35 37 39 40 42 43 44 45 46 46 46 47 48 48 48 48 48 47 47 47 47 47 47 46 46 46 46 46 45 45 45 45 45 45 45 46 46 46 46
29 31 33 34 35 36 37 39 39 41 42 43 44 45 45 46 47 47 47 47 47 46 46 46 45 45 45 45 44 45 44 44 44 44 44 44 45 45 45 45 45 44 44
30 32 34 34 35 35 36 37 38 39 41 42 43 44 44 44 44 45 45 45 45 46 45 45 44 44 44 44 44 43 43 43 43 43 43 44 44 43 43 43 43 42 42
31 32 33 34 34 35 35 36 36 38 39 40 41 41 42 41 41 42 43 43 43 43 43 43 43 43 43 42 42 42 42 42 42 42 42 42 42 42 42 41 41 40 40
30 31 31 32 33 34 34 34 35 36 37 37 38 39 39 39 39 40 40 41 41 41 42 42 42 41 41 41 41 41 41 41 41 41 42 41 41 41 40 40 39 39 38
29 29 30 32 32 32 33 33 32 33 34 35 36 37 37 37 38 38 38 39 40 40 41 40 40 40 40 40 40 40 40 40 40 40 41 41 40 40 40 39 38 37 37
29 30 31 31 32 32 32 32 32 31 32 33 34 34 35 35 36 37 37 37 37 38 38 39 39 39 39 39 40 40 40 40 39 39 39 39 39 39 38 37 37 36 35
31 31 31 32 32 32 31 32 32 32 32 32 33 33 34 35 35 36 36 37 37 37 37 37 38 39 39 39 39 39 39 39 39 39 39 38 38 37 37 36 36 36 35
32 31 31 31 30 31 31 31 31 31 32 32 32 33 34 33 34 35 36 36 36 36 37 37 38 38 38 38 38 38 38 38 37 37 37 37 36 36 36 35 35 35 35
33 32 31 31 30 30 31 31 31 31 31 32 32 33 33 34 34 35 35 36 36 36 36 37 37 37 38 37 37 37 37 37 37 36 36 36 36 35 35 35 35 34 34
Wind_Direction
215 217 217 218 219 221 223 224 225 226 228 229 231 232 234 236 237 239 241 243 245 247 249 251 254 255 257 259 261 264 266 268 269 271 273 275 277 279 282 285 287 290 292
216 219 222 223 220 221 224 226 227 227 229 231 232 233 234 236 237 239 242 244 246 248 250 252 254 255 257 260 262 264 265 268 270 272 273 275 276 279 282 284 287 289 291
218 220 223 226 226 226 228 229 228 229 229 233 233 233 234 237 239 241 241 243 246 249 251 252 253 255 257 258 259 263 264 268 270 273 274 275 275 277 281 285 287 289 291
221 224 225 228 230 231 232 233 233 233 231 232 233 234 236 239 241 243 243 244 247 249 251 251 253 254 256 258 259 261 264 267 271 273 274 275 277 279 281 284 286 288 290
220 222 225 228 231 233 235 236 237 237 236 235 236 238 239 240 241 243 244 244 245 248 251 252 252 255 258 261 262 264 266 269 271 273 275 277 279 281 283 284 286 288 290
223 225 227 230 233 235 236 237 239 240 240 239 239 241 243 243 244 246 247 246 247 249 250 253 255 258 261 263 264 266 268 270 273 275 277 278 280 283 284 285 286 288 290
227 229 231 232 234 235 237 239 241 241 242 241 242 243 245 244 245 246 247 248 250 251 253 255 259 262 263 263 265 268 269 271 273 276 278 280 282 283 285 286 287 288 290
229 230 232 234 236 237 239 242 244 244 245 245 246 245 246 247 248 247 248 249 250 253 256 257 259 262 263 264 266 268 270 272 275 277 279 281 283 283 285 287 288 289 289
235 235 236 237 237 240 242 244 246 246 247 247 248 249 249 249 251 251 252 252 254 256 258 260 261 261 262 265 267 269 272 275 277 279 280 281 282 284 286 287 289 289 290
240 240 239 240 240 241 243 245 247 247 248 249 251 251 252 252 252 252 253 255 257 259 261 261 261 263 265 267 269 271 274 275 278 280 280 281 283 284 286 287 289 289 290
245 245 245 246 246 247 248 249 250 251 252 252 253 254 254 255 255 256 257 258 259 261 262 263 263 266 268 269 272 272 274 277 278 279 280 281 282 284 285 286 287 288 289
251 250 250 250 251 251 251 252 252 253 254 255 256 257 258 258 258 259 259 260 261 262 263 264 264 266 267 269 271 272 274 276 277 278 279 280 282 284 284 285 286 287 288
253 253 253 252 252 253 254 255 255 256 256 256 255 256 257 259 260 260 261 261 262 263 264 266 266 267 269 269 270 272 274 274 276 277 279 280 281 283 284 285 285 286 287
252 254 254 255 255 256 257 257 258 258 257 256 257 257 258 259 261 262 262 261 261 263 265 266 266 267 268 269 270 272 273 274 275 276 279 281 282 283 283 284 285 286 286
254 255 257 258 258 258 259 259 259 258 257 257 258 257 258 259 260 261 262 262 261 263 264 264 265 266 266 268 269 271 272 273 276 277 279 280 281 282 283 284 285 286 286
260 261 262 262 262 261 260 259 258 258 258 258 258 257 257 258 259 260 260 261 261 262 263 263 265 266 267 268 270 272 273 275 277 278 279 280 281 282 283 284 285 285 286
266 266 266 266 265 264 262 261 260 258 257 257 257 257 257 257 258 258 258 259 260 261 262 263 264 265 267 269 270 272 273 275 277 278 278 280 281 282 283 285 285 285 286
271 269 268 267 266 266 264 263 261 259 257 257 257 256 256 257 257 256 257 258 258 259 261 263 264 266 267 269 270 272 273 275 276 277 278 279 281 283 284 285 285 285 285
276 274 272 270 269 267 265 264 263 261 259 259 258 257 256 257 257 256 256 257 258 259 261 263 264 266 268 269 270 271 272 274 275 277 278 280 282 283 284 284 284 284 284
280 278 276 273 271 269 267 266 265 264 262 261 260 258 257 257 256 256 256 257 258 259 261 263 264 266 268 268 270 271 272 274 275 277 279 280 281 282 283 284 284 284 283
283 280 278 275 274 272 270 268 267 265 263 261 259 258 258 257 256 257 257 258 259 260 261 262 264 265 266 267 269 271 272 274 275 277 278 279 280 281 282 283 283 283 284
287 284 281 278 275 273 271 269 268 265 262 261 259 258 256 256 256 258 259 260 260 260 262 262 263 265 266 267 269 270 272 274 276 277 278 279 280 281 281 282 283 283 283
288 286 283 280 276 273 271 269 267 264 263 262 260 258 257 257 257 258 259 260 260 261 262 262 263 265 266 268 270 271 273 275 275 276 277 278 279 280 280 280 281 281 282
287 285 283 281 278 273 271 269 265 263 263 262 260 258 258 257 258 259 260 260 260 261 262 263 264 265 267 268 270 272 273 274 275 276 277 277 278 279 279 280 280 280 281
288 286 283 281 278 275 272 270 267 265 264 261 259 258 259 259 259 259 260 260 260 260 261 262 264 265 266 267 269 271 272 274 274 275 276 276 277 278 278 279 279 280 281
288 285 282 280 277 276 274 270 267 266 264 261 259 258 258 258 258 259 260 260 259 259 261 262 264 265 266 267 269 270 272 273 273 274 275 276 277 278 278 278 279 279 280
Height
5715 5721 5727 5734 5740 5746 5752 5758 5764 5769 5774 5778 5782 5786 5791 5794 5798 5801 5804 5806 5809 5811 5813 5815 5817 5818 5819 5820 5821 5822 5823 5823 5824 5825 5825 5825 5824 5824 5823 5822 5821 5819 5817
5709 5716 5722 5728 5735 5740 5745 5751 5756 5762 5767 5771 5775 5779 5783 5786 5789 5792 5795 5798 5801 5803 5805 5807 5809 5810 5811 5812 5813 5814 5815 5815 5816 5817 5817 5817 5818 5816 5816 5814 5813 5811 5809
5705 5711 5717 5722 5729 5734 5739 5744 5749 5754 5759 5763 5767 5770 5773 5777 5780 5784 5787 5790 5792 5794 5796 5798 5800 5801 5802 5804 5805 5806 5806 5807 5807 5808 5808 5809 5809 5808 5808 5806 5804 5802 5801
5700 5706 5711 5717 5723 5728 5732 5737 5742 5747 5751 5755 5759 5762 5766 5769 5773 5776 5778 5781 5782 5785 5787 5789 5790 5792 5793 5795 5796 5797 5798 5798 5799 5799 5799 5799 5799 5799 5800 5799 5796 5794 5792
5694 5700 5706 5712 5717 5721 5726 5730 5734 5738 5742 5746 5750 5753 5757 5761 5764 5766 5769 5771 5773 5775 5778 5780 5781 5783 5785 5786 5787 5788 5789 5789 5790 5790 5790 5790 5789 5788 5788 5789 5788 5785 5782
5688 5694 5700 5705 5710 5715 5719 5723 5727 5730 5733 5737 5741 5745 5748 5751 5754 5757 5759 5762 5764 5767 5769 5770 5772 5774 5775 5777 5777 5778 5779 5780 5780 5780 5780 5780 5780 5779 5777 5777 5777 5775 5773
5683 5689 5694 5699 5703 5708 5712 5716 5719 5723 5724 5728 5732 5735 5738 5741 5744 5747 5750 5752 5754 5757 5759 5761 5763 5765 5766 5767 5768 5768 5769 5770 5770 5770 5770 5770 5769 5768 5766 5766 5765 5764 5763
5678 5683 5688 5692 5696 5700 5704 5707 5710 5714 5716 5719 5722 5725 5728 5731 5734 5737 5739 5742 5745 5747 5749 5751 5753 5754 5756 5757 5758 5759 5759 5760 5760 5760 5760 5759 5758 5757 5755 5754 5753 5752 5752
5673 5677 5680 5685 5689 5692 5696 5699 5702 5704 5707 5709 5712 5715 5718 5721 5723 5726 5729 5732 5734 5737 5739 5741 5742 5744 5745 5746 5747 5748 5748 5749 5749 5749 5749 5748 5747 5746 5744 5743 5741 5740 5739
5667 5670 5674 5677 5680 5684 5687 5689 5692 5694 5696 5699 5701 5704 5707 5710 5713 5715 5718 5720 5723 5725 5727 5730 5731 5733 5734 5735 5736 5737 5737 5738 5738 5738 5737 5737 5736 5734 5733 5731 5729 5727 5726
5661 5663 5666 5669 5671 5674 5677 5679 5682 5683 5685 5687 5690 5692 5695 5698 5701 5704 5707 5709 5712 5714 5716 5719 5720 5722 5723 5724 5725 5726 5726 5726 5726 5726 5726 5725 5724 5722 5721 5719 5717 5715 5713
5654 5656 5658 5660 5663 5665 5667 5669 5672 5673 5675 5676 5679 5681 5684 5687 5690 5693 5695 5698 5701 5703 5705 5707 5709 5710 5711 5712 5713 5714 5715 5715 5715 5714 5714 5713 5712 5710 5709 5707 5705 5703 5701
5648 5649 5651 5652 5654 5656 5658 5660 5661 5662 5664 5666 5668 5671 5674 5676 5678 5681 5684 5687 5689 5692 5694 5696 5697 5699 5700 5701 5702 5702 5703 5703 5703 5702 5702 5701 5700 5698 5697 5695 5693 5691 5689
5641 5642 5643 5644 5646 5647 5648 5649 5650 5651 5652 5655 5657 5660 5663 5665 5667 5669 5672 5674 5677 5679 5682 5683 5685 5687 5688 5689 5690 5690 5691 5691 5691 5690 5690 5689 5688 5686 5685 5683 5681 5679 5677
5634 5634 5635 5636 5636 5637 5637 5638 5639 5640 5641 5643 5645 5648 5650 5653 5655 5657 5660 5662 5664 5667 5669 5671 5673 5674 5676 5677 5678 5678 5679 5679 5679 5678 5678 5677 5676 5674 5673 5671 5669 5667 5666
5626 5626 5626 5626 5626 5626 5626 5626 5627 5628 5629 5631 5633 5635 5637 5640 5642 5645 5647 5650 5652 5655 5657 5659 5661 5663 5664 5665 5666 5666 5667 5667 5667 5666 5666 5665 5664 5663 5661 5659 5657 5656 5654
5618 5618 5617 5617 5616 5615 5615 5615 5616 5617 5618 5619 5621 5623 5625 5627 5629 5632 5635 5638 5641 5643 5645 5647 5649 5651 5652 5653 5654 5654 5655 5655 5655 5654 5654 5653 5652 5651 5649 5647 5646 5644 5642
5610 5609 5608 5608 5606 5605 5605 5605 5605 5606 5606 5608 5609 5611 5613 5615 5618 5620 5623 5626 5629 5631 5634 5636 5638 5639 5640 5641 5642 5643 5643 5643 5643 5643 5642 5641 5640 5639 5637 5636 5634 5632 5630
5602 5600 5599 5598 5596 5595 5595 5595 5595 5595 5595 5596 5597 5599 5601 5604 5606 5609 5612 5615 5618 5620 5622 5624 5626 5627 5628 5629 5630 5631 5631 5631 5631 5631 5630 5629 5628 5627 5626 5624 5622 5620 5619
5594 5592 5590 5588 5587 5586 5585 5584 5584 5584 5585 5585 5587 5588 5590 5593 5595 5598 5601 5603 5606 5608 5611 5612 5614 5615 5617 5617 5619 5619 5620 5619 5619 5619 5618 5618 5617 5616 5614 5613 5611 5609 5608
5585 5583 5581 5579 5577 5576 5575 5574 5574 5574 5575 5575 5576 5578 5580 5582 5584 5587 5590 5593 5595 5597 5600 5601 5603 5604 5605 5606 5607 5608 5608 5608 5607 5607 5607 5606 5605 5604 5603 5602 5600 5599 5597
5577 5574 5572 5570 5568 5567 5565 5565 5564 5564 5565 5566 5567 5568 5570 5572 5575 5577 5580 5582 5584 5586 5588 5590 5592 5593 5594 5595 5596 5596 5596 5596 5596 5596 5595 5595 5594 5593 5592 5591 5589 5588 5587
5568 5565 5563 5561 5559 5557 5556 5556 5555 5556 5556 5557 5558 5559 5561 5563 5565 5567 5570 5572 5574 5575 5577 5579 5581 5582 5583 5584 5584 5585 5585 5585 5585 5584 5584 5583 5583 5582 5581 5580 5579 5577 5576
5559 5556 5554 5552 5550 5548 5547 5546 5546 5547 5547 5548 5548 5550 5552 5554 5556 5557 5560 5561 5563 5565 5567 5569 5570 5571 5572 5573 5573 5574 5574 5574 5574 5573 5573 5572 5572 5571 5570 5569 5568 5567 5566
5549 5546 5544 5542 5540 5538 5537 5537 5537 5537 5538 5538 5539 5541 5542 5544 5546 5548 5549 5551 5553 5555 5557 5558 5559 5560 5561 5562 5562 5563 5563 5563 5563 5562 5562 5561 5561 5560 5559 5558 5557 5557 5556
5538 5536 5534 5532 5530 5529 5528 5527 5527 5528 5528 5529 5530 5532 5533 5535 5536 5538 5540 5541 5543 5544 5546 5547 5548 5549 5550 5551 5551 5552 5552 5552 5552 5552 5551 5551 5550 5549 5548 5548 5547 5546 5545